Regional Weather Roundup
Issued by NWS

Home | Current Version | Previous Version | Text Only | Print | Product List | Glossary Off
Versions: 1 2 3 4 5 6 7 8 9 10 11 12 13 14 15 16 17 18 19 20 21 22 23 24 25 26 27 28 29 30 31 32 33 34 35 36 37 38 39 40 41 42 43 44 45 46 47 48 49 50

000
ASUS43 KDTX 250210
RWRMI
MICHIGAN HOURLY REGIONAL WEATHER ROUNDUP
NATIONAL WEATHER SERVICE DETROIT/PONTIAC MI
900 PM EST FRI NOV 24 2017

NOTE: "FAIR" INDICATES FEW OR NO CLOUDS BELOW 12,000 FEET WITH NO
SIGNIFICANT WEATHER AND/OR OBSTRUCTION TO VISIBILITY.

MIZ047>049-052>055-059>063-066>070-074>076-081>083-250300-
SOUTHEAST LOWER MICHIGAN

CITY           SKY/WX    TMP DP  RH WIND       PRES   REMARKS
ADRIAN         PTCLDY    47  32  56 SW17      29.58F
ALMA           CLEAR     49  35  57 SW10G20   29.47S
ANN ARBOR      MOCLDY    47  33  58 S14G23    29.56F
BAD AXE        CLOUDY    49  34  54 SW14G22   29.46R
CARO           MOCLDY    52  34  50 S14G25    29.46R
DETROIT CITY   MOCLDY    48  31  51 S18G30    29.58F
DETROIT        CLOUDY    49  31  49 S16       29.58F
FLINT          CLOUDY    51  33  50 S16G23    29.51R
GROSSE ILE     CLOUDY    45  35  69 S15       29.59F
HILLSDALE      CLEAR     46  32  57 S15G23    29.57R
HOWELL         CLEAR     50  33  52 S14G23    29.52S

CITY           SKY/WX    TMP DP  RH WIND       PRES   REMARKS
JACKSON        CLEAR     51  32  48 S16G25    29.55R
LAMBERTVILLE   CLOUDY    51  30  45 S13G22    29.60F
LANSING        PTCLDY    51  34  52 S14       29.51R
LAPEER         CLOUDY    52  32  47 SW18G29   29.49F
MASON          CLEAR     51  33  50 SW8       29.52R
MONROE         MOCLDY    50  29  45 S15G23    29.59F
MT. CLEMENS    MOCLDY    49  32  52 S20G26    29.55F
PONTIAC        MOCLDY    50  32  50 S21G29    29.52F
PORT HOPE        N/A     52  34  50 SW13G24   29.42R
PORT HURON     CLOUDY    48  30  49 S21G26    29.55F
TRI CITIES     CLEAR     52  36  54 SW13G22   29.46S
MIDLAND        FAIR      51  35  52 SW13G22   29.45S
TROY           CLOUDY    52  31  44 S14G23    29.57F
SAGINAW HB     CLOUDY    50  34  53 SW15G24   29.47R
$$
MIZ043>046-050>051-056>058-064>065-071>073-077>080-250300-
SOUTHWEST LOWER MICHIGAN

CITY           SKY/WX    TMP DP  RH WIND       PRES   REMARKS
BATTLE CREEK   CLEAR     50  34  54 S20G30    29.53S
BENTON HARBOR  PTCLDY    54  34  46 S17G24    29.51S
BIG RAPIDS     CLEAR     52  35  51 SW14G24   29.41F
COLDWATER      CLEAR     50  31  48 SW12G20   29.57R
FREMONT        FAIR      53  39  58 SW24      29.43F
HOLLAND        CLEAR     55  36  48 SW25G36   29.48F
GRAND RAPIDS   PTCLDY    53  37  54 SW21G29   29.47F
IONIA          FAIR      51  34  52 S13G22    29.47F
KALAMAZOO      CLEAR     52  32  46 S18G28    29.53F
LUDINGTON      CLOUDY    53  41  65 SW15G28   29.40R
MARSHALL       CLEAR     50  32  50 SW13G20   29.54S
MOUNT PLEASANT CLEAR     51  33  50 SW10G18   29.44S
MUSKEGON       PTCLDY    53  40  61 S25G33    29.45F
SOUTH HAVEN    PTCLDY    55  35  45 SW13G24   29.50S
$$
MIZ016>042-250300-
NORTHERN LOWER MICHIGAN

CITY           SKY/WX    TMP DP  RH WIND       PRES   REMARKS
ALPENA         CLEAR     52  36  54 SW12G23   29.34F
BEAVER ISLAND  DRIZZLE   48  45  91 SW10      29.33R
BELLAIRE       MOCLDY    55  41  59 SW7       29.34S
CADILLAC       CLEAR     51  37  59 SW21G30   29.37S
CHARLEVOIX     CLOUDY    54  40  60 SW10      29.35S
FRANKFORT      CLOUDY    52  43  72 SW8G16    29.37S
GAYLORD        CLEAR     51  35  54 SW15      29.33S
GRAYLING       CLEAR     51  33  51 SW8G17    29.36F
HARBOR SPRINGS PTCLDY    50  42  71 W3        29.31R
HOUGHTON LAKE  CLEAR     49  34  56 S14G20    29.39F
OSCODA         CLEAR     49  32  51 SW15      29.39S
ROGERS CITY    CLOUDY    52  35  52 SW6       29.32S
TRAVERSE CITY  CLOUDY    55  38  52 SW8       29.35R
$$
MIZ007>008-015-250300-
EASTERN UPPER MICHIGAN

CITY           SKY/WX    TMP DP  RH WIND       PRES   REMARKS
KINROSS        LGT RAIN  45  44  97 W7        29.31S
MACKINAC ISLAN CLOUDY    49  42  78 W13G21    29.30S
NEWBERRY       CLOUDY    42  41  97 W6        29.33R
S. S. MARIE    LGT RAIN  46  43  89 W9        29.30R FOG
MUNISING         N/A     44  44 100 NW6       29.36R
$$
MIZ004>006-011>014-085-250300-
CENTRAL UPPER MICHIGAN

CITY           SKY/WX    TMP DP  RH WIND       PRES   REMARKS
MANISTIQUE     LGT RAIN  43  37  81 NW10      29.36R
ESCANABA       RAIN      47  45  93 NW6       29.38R
MENOMINEE      RAIN      49  46  90 W6        29.41R
SAWYER-GWINN   CLOUDY    43  39  87 W5        29.37R
$$
MIZ001>003-009>011-084-250300-
WESTERN UPPER MICHIGAN

CITY           SKY/WX    TMP DP  RH WIND       PRES   REMARKS
IRON MOUNTAIN  LGT RAIN  44  39  82 NW7       29.38R
HOUGHTON       CLOUDY    40  36  86 NW16      29.38R WCI  31
COPPER HARBOR    N/A     42  39  89 N12G18    29.36R
IRONWOOD       CLOUDY    39  36  89 W12       29.50R WCI  32
$$

ABBREVIATIONS USED IN REMARKS
   TC - TEMPERATURE IN CELSIUS
  WCI - WIND CHILL INDEX
   HX - HEAT INDEX
  VSB - VISIBILITY




USA.gov is the U.S. government's official web portal to all federal, state and local government web resources and services.